Location: Casteau
(50.5142°N, 4.0161°E)
Time: 05:31:18
(UTC+00:00)

USA 186 - Pass Details

Date: 18 September 2020
Orbit: 261 x 425 km, 96.9° (Epoch: 12 October)

Event Time Altitude Azimuth Distance (km) Brightness Sun altitude
Exits shadow 18:49:23 - 148° (SSE) 1,555 4.2 -10.1°
Reaches altitude 10° 18:49:39 10° 146° (SSE) 1,446 4.0 -10.2°
Maximum altitude 18:52:38 46° 73° (ENE) 568 2.0 -10.6°
Drops below altitude 10° 18:55:46 10° 358° (N) 1,518 4.8 -11.1°
Sets 18:57:52 0° 353° (N) 2,402 5.9 -11.4°
